Flag for Norway Weather past 2 weeks in Hammerfest, Norway

Now
39 °F

Sunny.


Feels Like: 39 °F
Forecast: 42 / 45 °F
Wind: 2 mph from Southwest

Location: Hammerfest

Current Time: Sep 17, 2014 at 7:38:50 AM

Latest Report: Sep 17, 2014 at 6:50 AM


Visibility: 10 mi

Pressure: 30.12 "Hg

Humidity: 87%

Dew point: 36 °F

Location of HammerfestLocation

Historic Weather in Hammerfest — Graph

°F

Hammerfest temperature yesterday

Maximum temperature yesterday: 52 °F (at 12:50 PM)
Minimum temperature yesterday: 41 °F (at 10:50 PM)
Average temperature yesterday: 47 °F

Past Weeks' High & Low Weather Summary

 TemperatureHumidityPressure
High55 °F (Sep 2, 10:50 AM)100% (Sep 2, 7:50 AM)30.33 "Hg (Sep 2, 7:50 AM)
Low39 °F (Sep 17, 3:50 AM)54% (Sep 15, 8:50 AM)29.56 "Hg (Sep 11, 8:50 AM)
Average49 °F82%29.96 "Hg
* Reported Sep 2 5:50 AM — Sep 17 5:50 AM, Hammerfest, Weather by CustomWeather, © 2014

Note: Actual official high and low records may vary slightly from our data, if they occured in-between our weather recording intervals... More about our weather records

Advertising

Hammerfest weather history for previous 24 hours

 ConditionsComfort  
Time TempWeatherWind HumidityBarometerVisibility
5:50 AM
Sep 17
39 °FClear.1 mph87%30.15 "Hg10 mi
4:50 AM39 °FClear.1 mph87%30.15 "Hg10 mi
3:50 AM39 °FClear.1 mph87%30.15 "Hg10 mi
1:50 AM41 °FClear.2 mph81%30.18 "Hg10 mi
12:50 AM41 °FClear.No wind76%30.21 "Hg10 mi
11:50 PM
Sep 16
43 °FClear.1 mph76%30.21 "Hg10 mi
10:50 PM41 °FClear.No wind76%30.24 "Hg10 mi
9:50 PM43 °FClear.No wind71%30.24 "Hg10 mi
8:50 PM43 °FClear.1 mph71%30.27 "Hg10 mi
7:50 PM45 °FSunny.1 mph76%30.27 "Hg10 mi
6:50 PM46 °FSunny.2 mph71%30.27 "Hg10 mi
5:50 PM50 °FSunny.2 mph67%30.27 "Hg10 mi
4:50 PM52 °FSunny.5 mph62%30.30 "Hg10 mi
3:50 PM52 °FSunny.6 mph62%30.30 "Hg10 mi
2:50 PM52 °FSunny.7 mph67%30.30 "Hg10 mi
1:50 PM52 °FSunny.7 mph62%30.33 "Hg10 mi
12:50 PM52 °FSunny.8 mph62%30.33 "Hg10 mi
11:50 AM50 °FSunny.9 mph67%30.33 "Hg10 mi
10:50 AM50 °FPassing clouds.9 mph71%30.33 "HgN/A
9:50 AM48 °FScattered clouds.8 mph76%30.33 "HgN/A
8:50 AM46 °FPassing clouds.6 mph82%30.33 "HgN/A
7:50 AM45 °FScattered clouds.7 mph87%30.33 "HgN/A
Weather by CustomWeather, © 2014

See weather overviewHow to use our weather pages